Location: Neuvy Saint Sepulchre
(46.5953°N, 1.8122°E)
Time: 16:35:37
(UTC+02:00)

ISS - Pass Details

Date: 04 May 2026
Orbit: 414 x 424 km, 51.6° (Epoch: 21 May)

Event Time Altitude Azimuth Distance (km) Brightness Sun altitude
Exits shadow 04:03:56 17° 307° (NW) 1,155 -1.5 -20.5°
Maximum altitude 04:06:04 34° 6° (N) 711 -2.1 -20.3°
Drops below altitude 10° 04:09:12 10° 73° (ENE) 1,502 -0.2 -20.0°
Sets 04:11:25 0° 83° (E) 2,367 0.7 -19.8°
